This is the latest recevied weather packets stored in our database for station/object WA2TQI. If no packets are shown the sender has not sent any weather packets the latest 10 day(s).
| Time | Temp. | Humidity | Pressure | Rain* | Wind** | Luminosity | Snow |
|---|---|---|---|---|---|---|---|
| 1777583693 | 17.78° C | 62% | 1008.6 hPa | 0 mm | - | - | - |
| 1777583392 | 17.78° C | 65% | 1008.6 hPa | 0 mm | - | - | - |
| 1777583091 | 17.78° C | 64% | 1008.4 hPa | 0 mm | - | - | - |
| 1777582788 | 17.78° C | 61% | 1008.2 hPa | 0 mm | - | - | - |
| 1777582483 | 17.78° C | 65% | 1008.2 hPa | 0 mm | - | - | - |
| 1777582179 | 17.78° C | 64% | 1008.4 hPa | 0 mm | - | - | - |
| 1777581877 | 17.78° C | 63% | 1008.3 hPa | 0 mm | - | - | - |
| 1777581572 | 18.33° C | 63% | 1008 hPa | 0 mm | - | - | - |
| 1777581267 | 18.33° C | 65% | 1008 hPa | 0 mm | - | - | - |
| 1777580963 | 17.78° C | 66% | 1008 hPa | 0 mm | - | - | - |
| 1777580662 | 17.78° C | 64% | 1008 hPa | 0 mm | - | - | - |
| 1777580358 | 17.78° C | 66% | 1008 hPa | 0 mm | - | - | - |
| 1777580055 | 17.78° C | 68% | 1008 hPa | 0 mm | - | - | - |
| 1777579751 | 17.78° C | 67% | 1008 hPa | 0 mm | - | - | - |
| 1777579449 | 17.78° C | 67% | 1007.9 hPa | 0 mm | - | - | - |
| 1777579145 | 17.78° C | 68% | 1008 hPa | 0 mm | - | - | - |
| 1777578845 | 17.78° C | 65% | 1008 hPa | 0 mm | - | - | - |
| 1777578541 | 17.22° C | 68% | 1007.9 hPa | 0 mm | - | - | - |
| 1777578235 | 18.33° C | 65% | 1007.9 hPa | 0 mm | - | - | - |
| 1777577931 | 18.33° C | 65% | 1007.9 hPa | 0 mm | - | - | - |
| 1777577627 | 17.78° C | 65% | 1007.8 hPa | 0 mm | - | - | - |
| 1777577325 | 17.78° C | 67% | 1007.9 hPa | 0 mm | - | - | - |
| 1777577020 | 18.33° C | 66% | 1007.7 hPa | 0 mm | - | - | - |
| 1777576718 | 17.78° C | 67% | 1007.8 hPa | 0 mm | - | - | - |
| 1777576416 | 17.78° C | 70% | 1007.9 hPa | 0 mm | - | - | - |
* Rain latest hour (hover to see other rain measurements)
** Current wind speed in m/s (hover to see current wind gust speed)